West Palm Beach, FL

10:33 AM EDT on September 18, 2019 (GMT -0400)
Palm Beach International

Weather History for KPBI - August, 2019

Change the Weather History Date:

Sunday, August 25, 2019

  Actual Average Record
Temperature  
Mean Temperature 85 °F 83 °F  
Max Temperature 91 °F 90 °F 99 °F (1924)
Min Temperature 79 °F 76 °F 67 °F (1919)
Degree Days  
Heating Degree Days 0 0  
Month to date heating degree days 0 0  
Since 1 June heating degree days 0 0  
Since 1 July heating degree days 0 0  
Cooling Degree Days 20 18  
Month to date cooling degree days 468 450  
Year to date cooling degree days 3052 2598  
Since 1 June cooling degree days 1651 1489  
Growing Degree Days 35 (Base 50)    
Moisture  
Dew Point 76 °F    
Average Humidity 81    
Maximum Humidity 97    
Minimum Humidity 64    
Precipitation  
Precipitation 0.20 in 0.27 in 3.40 in (1994)
Month to date precipitation 11.66 6.30  
Year to date precipitation 42.98 39.07  
Snow  
Snow 0.00 in - - ()
Month to date snowfall 0.0  
Since 1 June snowfall 0.0  
Since 1 July snowfall 0.0  
Snow Depth 0.00 in    
Sea Level Pressure  
Sea Level Pressure 29.94 in    
Wind  
Wind Speed 5 mph (West)    
Max Wind Speed 17 mph    
Max Gust Speed 22 mph    
Visibility 10 miles    
Events Rain , Thunderstorm    
T = Trace of Precipitation, MM = Missing Value Source: NWS Daily Summary

Daily Weather History Graph

Daily Weather History Graph

Search for Another Location

Airport or City:

Astronomy

Aug. 25, 2019 Rise Set
Actual Time 6:56 AM EDT 7:47 PM EDT
Civil Twilight 6:32 AM EDT 8:11 PM EDT
Nautical Twilight 6:04 AM EDT 8:39 PM EDT
Astronomical Twilight 5:36 AM EDT 9:08 PM EDT
Moon 1:46 AM EDT (8/25) 3:48 PM EDT (8/25)
Length of Visible Light 13h 38m
Length of Day
12h 50m
Waning Crescent, 29% of the Moon is Illuminated
Aug 25
Waning Crescent
Aug 30
New
Sep 5
First Quarter
Sep 14
Full
Sep 21
Last Quarter

Hourly Weather History & Observations

Time (EDT) Temp. Heat Index Dew Point Humidity Pressure Visibility Wind Dir Wind Speed Gust Speed Precip Events Conditions
12:53 AM 80.1 °F 85.4 °F 75.9 °F 87% 29.94 in 10.0 mi SE 3.5 mph - N/A   Partly Cloudy
1:53 AM 79.0 °F - 75.9 °F 90% 29.92 in 10.0 mi Calm Calm - N/A   Partly Cloudy
2:53 AM 80.1 °F 85.4 °F 75.9 °F 87% 29.91 in 10.0 mi South 4.6 mph - N/A   Partly Cloudy
3:53 AM 79.0 °F - 75.9 °F 90% 29.91 in 10.0 mi SSW 4.6 mph - N/A   Partly Cloudy
4:53 AM 79.0 °F - 77.0 °F 94% 29.90 in 10.0 mi South 5.8 mph - N/A   Partly Cloudy
5:53 AM 79.0 °F - 77.0 °F 94% 29.91 in 10.0 mi SSW 4.6 mph - N/A   Partly Cloudy
6:53 AM 80.1 °F 85.8 °F 77.0 °F 90% 29.92 in 10.0 mi Calm Calm - N/A   Partly Cloudy
7:53 AM 81.0 °F 88.6 °F 78.1 °F 91% 29.94 in 10.0 mi SSW 4.6 mph - N/A   Scattered Clouds
8:53 AM 82.9 °F 92.8 °F 78.1 °F 85% 29.95 in 10.0 mi SW 9.2 mph - N/A   Scattered Clouds
9:53 AM 84.9 °F 95.3 °F 77.0 °F 77% 29.96 in 10.0 mi West 10.4 mph - N/A   Mostly Cloudy
10:53 AM 88.0 °F 100.2 °F 77.0 °F 70% 29.96 in 10.0 mi West 11.5 mph - N/A   Mostly Cloudy
11:53 AM 89.1 °F 100.2 °F 75.9 °F 65% 29.96 in 10.0 mi WSW 4.6 mph - N/A   Scattered Clouds
12:53 PM 90.0 °F 100.2 °F 75.0 °F 61% 29.95 in 10.0 mi West 6.9 mph - N/A   Mostly Cloudy
1:17 PM 91.0 °F 101.6 °F 75.0 °F 59% 29.94 in 10.0 mi SW 6.9 mph - N/A Thunderstorm Thunderstorm
1:53 PM 90.0 °F 101.3 °F 75.9 °F 63% 29.94 in 10.0 mi North 13.8 mph - N/A Thunderstorm Thunderstorm
2:19 PM 84.9 °F 97.5 °F 79.0 °F 82% 29.94 in 10.0 mi North 16.1 mph - 0.00 in Thunderstorm Thunderstorm
2:41 PM 82.0 °F 91.0 °F 78.1 °F 88% 29.95 in 1.5 mi West 5.8 mph - 0.04 in Rain , Thunderstorm Heavy Thunderstorms and Rain
2:53 PM 80.1 °F 85.4 °F 75.9 °F 87% 29.95 in 3.0 mi NNE 9.2 mph - 0.18 in Rain , Thunderstorm Light Thunderstorms and Rain
3:23 PM 80.1 °F 85.1 °F 75.0 °F 85% 29.94 in 9.0 mi NNW 8.1 mph - 0.02 in Rain , Thunderstorm Light Thunderstorms and Rain
3:53 PM 81.0 °F 86.2 °F 73.9 °F 79% 29.94 in 10.0 mi Calm Calm - 0.02 in Thunderstorm Thunderstorm
4:34 PM 82.9 °F 89.4 °F 73.9 °F 74% 29.91 in 10.0 mi NNE 5.8 mph - N/A   Mostly Cloudy
4:53 PM 82.9 °F 90.2 °F 75.0 °F 77% 29.91 in 10.0 mi NNE 3.5 mph - N/A   Mostly Cloudy
5:53 PM 84.0 °F 92.6 °F 75.9 °F 76% 29.93 in 10.0 mi South 3.5 mph - N/A   Mostly Cloudy
6:53 PM 84.0 °F 92.6 °F 75.9 °F 76% 29.92 in 10.0 mi NE 4.6 mph - N/A   Mostly Cloudy
7:53 PM 82.9 °F 91.8 °F 77.0 °F 82% 29.93 in 10.0 mi Calm Calm - N/A   Mostly Cloudy
8:53 PM 82.9 °F 91.8 °F 77.0 °F 82% 29.94 in 10.0 mi North 3.5 mph - N/A   Mostly Cloudy
9:53 PM 82.0 °F 90.2 °F 77.0 °F 85% 29.96 in 10.0 mi Calm Calm - N/A   Mostly Cloudy
10:53 PM 81.0 °F 87.9 °F 77.0 °F 88% 29.96 in 10.0 mi Calm Calm - N/A   Partly Cloudy
11:53 PM 80.1 °F 85.8 °F 77.0 °F 90% 29.96 in 10.0 mi WNW 3.5 mph - N/A   Partly Cloudy